Regional Weather Roundup
Issued by NWS

Home | Current Version | Previous Version | Text Only | Print | Product List | Glossary On
Versions: 1 2 3 4 5 6 7 8 9 10 11 12 13 14 15 16 17 18 19 20 21 22 23 24 25 26 27
000
ASUS45 KTFX 260410
RWRMT
MONTANA REGIONAL WEATHER ROUNDUP
NATIONAL WEATHER SERVICE GREAT FALLS MT
900 PM MST SUN FEB 25 2018

NOTE: "FAIR" INDICATES FEW OR NO CLOUDS BELOW 12000 FEET WITH NO
SIGNIFICANT WEATHER AND/OR OBSTRUCTIONS TO VISIBILITY.

MTZ001>007-043-260500-
WEST OF THE DIVIDE

CITY           SKY/WX    TMP DP  RH WIND       PRES   REMARKS
KALISPELL      CLOUDY    30  29  96 S5        29.54R
MISSOULA       CLOUDY    32  24  72 VRB3      29.62S
BUTTE          CLOUDY    25  15  66 S9        29.62F WCI  15
MULLAN PASS    CLOUDY    21  17  84 VRB7      29.49S WCI  12
ANACONDA         N/A     27  21  80 MISG      29.62S
DEER LODGE       N/A     27  23  86 MISG      29.62S
EUREKA           N/A     28  27  93 MISG      29.56R
HAMILTON         N/A     30  27  86 MISG      29.66S
RONAN            N/A     30  28  93 W22G28    29.62S FOG     WCI  17
$$

MTZ008-052>055-260500-
SOUTHWEST MONTANA

CITY           SKY/WX    TMP DP  RH WIND       PRES   REMARKS
BOZEMAN        CLOUDY    23  13  65 E8        29.68S WCI  14
DILLON         CLOUDY    21  12  68 S18       29.66S WCI   6
ENNIS          CLOUDY    25  12  58 S28G35    29.74S WCI   8
W YELLOWSTONE  SNOW      16  14  93 SW22G30   29.77F VSB 1/4 WCI  -2
THREE FORKS      N/A     29  15  55 S23       29.68F WCI  15
$$

MTZ009-010-012-014-046-048-049-054-260500-
EAST SLOPES AND CENTRAL MONTANA

CITY           SKY/WX    TMP DP  RH WIND       PRES   REMARKS
CUT BANK       CLOUDY    26  21  81 W9        29.45R WCI  17
GREAT FALLS    FAIR      30  17  58 SW22      29.50S WCI  17
MALMSTROM AFB  FAIR      30  21  68 SW29      29.50F WCI  16
HELENA         CLOUDY    35  20  54 S15G22    29.59F WCI  25
AUGUSTA        MOCLDY    26  21  82 SW21      29.49S WCI  11
BOWMANS CRNR   FAIR      27  20  76 SW26      29.49S WCI  11
CHOTEAU          N/A     28  21  74 SW22      29.49F WCI  15
FAIRFIELD      FAIR      25  19  77 SW17      29.49S WCI  12
POWER          FAIR      27  21  77 SW24      29.48S WCI  12
RAYNESFORD     FAIR      33  17  51 SW28G36   29.50F WCI  19
ULM            FAIR      31  21  65 SW26      29.52S WCI  17
WHITE SULPHUR    N/A     23  16  74 SW32G39   29.55S WCI   5
$$

MTZ011-013-016-021-045-047-050-051-260500-
NORTH CENTRAL MONTANA

CITY           SKY/WX    TMP DP  RH WIND       PRES   REMARKS
HAVRE          FAIR      27  22  81 SW15      29.49S WCI  15
LEWISTOWN      FAIR      27  18  69 SW25      29.56S WCI  12
N BAR RANCH    FAIR      32  12  43 W29G36    29.55F WCI  18
CHINOOK          N/A     36  23  60 MISG      29.48F
GEYSER         FAIR      30  17  60 SW26G33   29.51R WCI  15
STANFORD       FAIR      28  18  65 W28G37    29.51S WCI  13
WINIFRED       FAIR      29  21  73 SW33      29.51F WCI  13
$$

MTZ017>020-022>027-061-062-260500-
NORTHEAST MONTANA

CITY           SKY/WX    TMP DP  RH WIND       PRES   REMARKS
GLASGOW        CLOUDY    29  19  66 SW5       29.54S
GLENDIVE       CLOUDY    26  18  71 SW13      29.64S WCI  15
JORDAN           N/A     33  22  63 SW22G33   29.58S WCI  21
MALTA          CLOUDY    30  19  64 VRB5      29.50S
SIDNEY         FAIR      19  15  84 S17       29.62F WCI   4
WOLF POINT     MOCLDY    14   9  80 NW6       29.58F WCI   5
PLENTYWOOD       N/A     25  16  68 SW5       29.54S
POPLAR           N/A     21  16  79 SW8       29.59S WCI  12
SCOBEY           N/A     23  12  62 S7        29.54  WCI  15
$$

MTZ028>42-056>058-260500-
SOUTHCENTRAL AND SOUTHEAST MONTANA

CITY           SKY/WX    TMP DP  RH WIND       PRES   REMARKS
BAKER          FAIR      26  13  57 SW20      29.68S WCI  12
BILLINGS       MOCLDY    29  12  49 SW14      29.69R WCI  18
LIVINGSTON     CLOUDY    30  13  49 SW43G58   29.62R WCI  13
MILES CITY     FAIR      27  15  61 SW16      29.66S WCI  15
BIG TIMBER     CLOUDY    28  12  50 SW25      29.67S WCI  14
FORSYTH          N/A     34  14  44 SW8       29.66S WCI  27
HARLOWTON      FAIR      23  11  60 N7        29.61S WCI  15
LAUREL           N/A     28  14  54 SW23      29.68F WCI  14
$$

REGIONAL REPORTS...DAKOTAS

CITY           SKY/WX    TMP DP  RH WIND       PRES   REMARKS
WILLISTON      FAIR      17  12  80 SW7       29.60F WCI   8
MINOT          FAIR      26  14  60 SW14      29.60F WCI  14
DICKINSON      FAIR      21  12  68 SW18      29.64S WCI   6
BEACH          FAIR      23  12  63 SW17G23   29.68S WCI   9
CROSBY         FAIR      16  12  86 S14       29.56S WCI   1
TIOGA          FAIR      19  18  93 SW16      29.58S WCI   5
BISMARCK       FAIR      22  15  75 W8        29.73R WCI  12
GRAND FORKS    FAIR      14  11  87 S10       29.75S WCI   1
FARGO          FAIR      18  13  80 S10       29.80S WCI   6
BUFFALO SD       N/A     20   8  60 W13       29.66S WCI   7
RAPID CITY     FAIR      19   8  62 S7        29.82S WCI  10
$$

REGIONAL REPORTS...WYOMING/IDAHO/WASHINGTON

CITY           SKY/WX    TMP DP  RH WIND       PRES   REMARKS
GILLETTE       FAIR      26  13  57 SW29G39   29.75R WCI  10
SHERIDAN       FAIR      36  10  34 W21G31    29.71R WCI  25
BUFFALO WY     FAIR      29   6  38 W8        29.72S WCI  21
CODY           FAIR      28   8  43 VRB7G17   29.79S WCI  21
YELLOWSTONE LA   N/A     11   6  81 VRB5      29.80S
IDAHO FALLS    CLOUDY    26  15  63 S14G20    29.94F WCI  14
SALMON         CLOUDY    37  15  40 SW15G21   29.70F WCI  28
BOISE          CLOUDY    35  25  66 SE13      29.87F WCI  26
SPOKANE        MOCLDY    32  23  69 SW16      29.63R WCI  21
$$

REGIONAL REPORTS...ALBERTA

CITY           SKY/WX    TMP DP  RH WIND       PRES   REMARKS
CALGARY        MOCLDY    21   9  58 NW6       29.41R WCI  14
CARDSTON         N/A     27  23  86 SW8         N/A  WCI  18
EDMONTON       CLOUDY    27  21  80 NW3       29.41R
FORT MCMURRAY  CLOUDY    16  12  86 NW9       29.49R WCI   4
HIGH LEVEL     FLURRIES  18  10  73 CALM      29.50S
LETHBRIDGE     CLOUDY    28  23  80 SW15      29.42S WCI  17
LLOYDMINSTER   MOCLDY    21  16  79 W10       29.35R WCI  10
MEDICINE HAT   CLOUDY    27  21  80 S9        29.42R WCI  17
MILK RIVER       N/A     30  25  80 W14G23      N/A  WCI  20
PEACE RIVER    MOCLDY     9   3  78 VRB2      29.50R
PINCHER CREEK  LGT SNOW  25  21  86 W9        29.45R WCI  15
WATERTON GATE    N/A     23  21  93 S6          N/A  WCI  16
$$

REGIONAL REPORTS...SASKATCHEWAN

CITY           SKY/WX    TMP DP  RH WIND       PRES   REMARKS
CORONACH         N/A     27  18  69 SW13        N/A  WCI  16
CYPRESS HILLS    N/A     23  16  74 W8          N/A  WCI  14
ESTEVAN        CLOUDY    16  10  79 S7        29.54F WCI   6
MOOSE JAW        N/A     23  18  80 SW18G25     N/A  WCI   9
PRINCE ALBERT  PTCLDY    12   7  79 S5        29.40F
REGINA         MOCLDY     7   3  85 SE9       29.47R WCI  -7
ROCKGLEN         N/A     25  18  74 SW15        N/A  WCI  12
SASKATOON      CLEAR     10   5  79 S8        29.40S WCI  -1
$$




USA.gov is the U.S. government's official web portal to all federal, state and local government web resources and services.